Find Starlink 2563

NORAD ID: 48410 Int'l Des: 2021-038 Owner: SPXS Country: US Constellation: starlink operational
LEOCIRCULARSTARLINK_TYPE

实时位置

正在加载3D地球...

关于 Starlink 2563

正在加载描述...

即将过境

Passes for default location (London). Set your location on the main map for personalized predictions.

高度历史

Loading altitude history...

两行轨道根数

1 48410U 21038BK 26104.00002315 .00043959 00000-0 15276-2 0 9998
2 48410 53.1541 132.2979 0001332 96.7053 350.0271 15.29336916 5895
Epoch: Apr 14, 2026 • Age: 34 hours

当前状态

高度 478.7 km
速度 7.63 km/s
星下点 29.76°N, 152.9°E
发射日期 May 4, 2021
运行时间 4.9 years
类型 internet

技术详情

分类 Payload
质量 260.00 kg
干质量 248.00 kg
总质量 260.00 kg
长度 0.20 m
直径 2.80 m
跨度 9.00 m
形状 Box + pan
制造商 SPXS
平台类型 Starlink
阶段状态 In Orbit
所有者/国家 SPXS/US

Most Searched